QPF
0.00 0.00 0.00 0.00 0.00 0.00 0.00 0.00 0.00 0.00 0.00 0.00 0.00 0.00 0.01 0.00 0.01 0.01 0.02 0.02 0.01 0.01 0.01 0.02 0.03 0.03 0.03 0.02 0.02 0.01 0.01 0.01 0.02 0.01 0.01 0.01 0.02 0.02 0.02 0.02 0.02 0.02 0.01 0.01 0.01 0.01 0.01 0.01 0.01
0.00 0.00 0.00 0.00 0.00 0.00 0.00 0.00 0.00 0.00 0.00 0.00 0.00 0.00 0.00 0.01 0.01 0.01 0.02 0.03 0.02 0.01 0.01 0.02 0.03 0.04 0.03 0.02 0.02 0.01 0.00 0.01 0.01 0.01 0.01 0.01 0.01 0.01 0.01 0.01 0.01 0.01 0.01 0.01 0.01 0.01 0.01 0.01 0.01
0.00 0.00 0.00 0.00 0.00 0.00 0.00 0.00 0.00 0.00 0.00 0.00 0.00 0.00 0.00 0.01 0.02 0.02 0.01 0.02 0.04 0.03 0.02 0.02 0.04 0.04 0.03 0.02 0.03 0.02 0.01 0.01 0.01 0.01 0.01 0.01 0.01 0.01 0.01 0.01 0.01 0.01 0.01 0.01 0.01 0.01 0.01 0.00 0.00
0.00 0.00 0.00 0.00 0.00 0.00 0.00 0.00 0.00 0.00 0.00 0.00 0.00 0.00 0.00 0.01 0.01 0.01 0.01 0.01 0.03 0.05 0.03 0.03 0.03 0.03 0.03 0.03 0.03 0.02 0.02 0.01 0.01 0.01 0.01 0.01 0.01 0.01 0.02 0.02 0.01 0.01 0.01 0.01 0.01 0.01 0.01 0.01 0.00
0.00 0.00 0.01 0.00 0.00 0.00 0.00 0.00 0.00 0.00 0.00 0.00 0.00 0.00 0.01 0.01 0.01 0.01 0.01 0.02 0.01 0.03 0.03 0.03 0.03 0.02 0.02 0.04 0.04 0.02 0.01 0.01 0.01 0.01 0.02 0.02 0.02 0.02 0.02 0.02 0.02 0.02 0.02 0.01 0.01 0.01 0.01 0.01 0.01
0.01 0.00 0.00 0.00 0.00 0.00 0.00 0.00 0.00 0.00 0.00 0.00 0.00 0.00 0.01 0.02 0.02 0.02 0.02 0.02 0.02 0.03 0.02 0.01 0.01 0.02 0.02 0.03 0.04 0.03 0.03 0.02 0.01 0.02 0.02 0.02 0.02 0.02 0.02 0.02 0.02 0.02 0.02 0.02 0.01 0.01 0.01 0.01 0.01
0.01 0.01 0.00 0.00 0.00 0.00 0.00 0.00 0.00 0.00 0.00 0.00 0.00 0.00 0.01 0.02 0.02 0.03 0.03 0.02 0.03 0.05 0.03 0.01 0.01 0.01 0.02 0.03 0.03 0.02 0.03 0.02 0.02 0.02 0.02 0.03 0.02 0.02 0.02 0.02 0.02 0.02 0.02 0.01 0.02 0.02 0.01 0.01 0.01
0.02 0.01 0.01 0.00 0.00 0.00 0.00 0.00 0.00 0.00 0.00 0.00 0.00 0.00 0.01 0.01 0.03 0.02 0.02 0.02 0.02 0.04 0.03 0.02 0.02 0.01 0.01 0.02 0.03 0.03 0.03 0.02 0.02 0.02 0.02 0.02 0.03 0.02 0.01 0.02 0.03 0.02 0.02 0.02 0.02 0.02 0.02 0.02 0.01
0.03 0.03 0.02 0.01 0.01 0.00 0.00 0.00 0.00 0.00 0.00 0.00 0.00 0.00 0.00 0.01 0.02 0.03 0.03 0.03 0.02 0.04 0.03 0.02 0.03 0.03 0.02 0.02 0.02 0.03 0.03 0.02 0.02 0.01 0.01 0.01 0.01 0.01 0.01 0.01 0.01 0.02 0.02 0.01 0.01 0.02 0.02 0.02 0.02
0.04 0.03 0.02 0.01 0.01 0.00 0.00 0.00 0.00 0.01 0.01 0.00 0.00 0.00 0.00 0.01 0.01 0.03 0.04 0.04 0.03 0.03 0.05 0.03 0.02 0.03 0.04 0.03 0.03 0.03 0.03 0.03 0.04 0.03 0.01 0.01 0.01 0.02 0.02 0.01 0.01 0.01 0.01 0.01 0.01 0.01 0.01 0.01 0.01
0.03 0.03 0.01 0.01 0.00 0.00 0.00 0.01 0.00 0.00 0.00 0.01 0.01 0.00 0.00 0.00 0.01 0.03 0.04 0.04 0.03 0.02 0.05 0.06 0.03 0.04 0.05 0.04 0.04 0.04 0.03 0.03 0.05 0.05 0.03 0.01 0.02 0.01 0.01 0.01 0.01 0.01 0.01 0.01 0.01 0.01 0.01 0.01 0.01
0.01 0.01 0.00 0.00 0.00 0.00 0.00 0.00 0.00 0.00 0.00 0.00 0.01 0.01 0.00 0.00 0.01 0.02 0.04 0.04 0.04 0.02 0.04 0.06 0.06 0.06 0.05 0.04 0.04 0.05 0.04 0.03 0.05 0.06 0.03 0.02 0.02 0.01 0.00 0.00 0.01 0.01 0.01 0.01 0.01 0.01 0.01 0.01 0.01
0.01 0.01 0.00 0.00 0.00 0.00 0.00 0.00 0.00 0.00 0.00 0.00 0.00 0.00 0.00 0.00 0.00 0.01 0.03 0.04 0.05 0.03 0.03 0.05 0.04 0.04 0.04 0.04 0.05 0.05 0.05 0.05 0.05 0.08 0.06 0.03 0.01 0.01 0.00 0.00 0.00 0.00 0.00 0.00 0.01 0.01 0.01 0.01 0.01
0.01 0.01 0.01 0.01 0.01 0.00 0.00 0.00 0.00 0.01 0.00 0.00 0.01 0.01 0.00 0.00 0.01 0.01 0.02 0.03 0.04 0.04 0.02 0.03 0.04 0.03 0.03 0.04 0.05 0.06 0.07 0.07 0.08 0.07 0.06 0.05 0.04 0.02 0.01 0.00 0.00 0.00 0.00 0.00 0.00 0.01 0.01 0.01 0.01
0.01 0.01 0.01 0.01 0.01 0.01 0.00 0.00 0.00 0.00 0.00 0.00 0.00 0.02 0.01 0.01 0.01 0.00 0.01 0.02 0.04 0.04 0.03 0.02 0.03 0.04 0.03 0.04 0.05 0.08 0.07 0.07 0.09 0.08 0.05 0.04 0.04 0.03 0.02 0.01 0.00 0.00 0.00 0.00 0.00 0.00 0.00 0.00 0.00
0.01 0.01 0.01 0.01 0.01 0.01 0.01 0.00 0.00 0.00 0.00 0.00 0.00 0.01 0.02 0.02 0.01 0.00 0.01 0.02 0.02 0.03 0.03 0.04 0.03 0.03 0.04 0.04 0.05 0.06 0.08 0.06 0.06 0.07 0.05 0.04 0.04 0.03 0.02 0.02 0.01 0.01 0.00 0.00 0.00 0.00 0.00 0.00 0.00
0.01 0.01 0.01 0.01 0.00 0.00 0.01 0.00 0.00 0.00 0.00 0.00 0.00 0.00 0.01 0.02 0.02 0.01 0.00 0.01 0.01 0.02 0.02 0.03 0.03 0.02 0.03 0.04 0.05 0.05 0.07 0.09 0.07 0.06 0.04 0.03 0.04 0.03 0.02 0.02 0.02 0.01 0.01 0.01 0.00 0.00 0.00 0.00 0.00
0.01 0.01 0.00 0.00 0.00 0.00 0.00 0.00 0.00 0.00 0.00 0.00 0.00 0.00 0.01 0.01 0.01 0.01 0.01 0.01 0.01 0.02 0.02 0.03 0.03 0.03 0.03 0.05 0.05 0.05 0.06 0.07 0.08 0.07 0.06 0.03 0.03 0.03 0.02 0.02 0.02 0.01 0.01 0.01 0.01 0.01 0.01 0.00 0.01
0.00 0.00 0.00 0.00 0.00 0.00 0.01 0.00 0.00 0.00 0.00 0.00 0.00 0.00 0.00 0.00 0.01 0.01 0.01 0.01 0.02 0.01 0.01 0.02 0.03 0.03 0.03 0.04 0.05 0.05 0.05 0.06 0.06 0.07 0.08 0.06 0.03 0.03 0.02 0.02 0.02 0.02 0.01 0.01 0.01 0.01 0.01 0.01 0.01
0.00 0.00 0.00 0.00 0.00 0.01 0.01 0.00 0.00 0.00 0.00 0.00 0.00 0.00 0.00 0.00 0.00 0.01 0.01 0.01 0.01 0.02 0.01 0.01 0.01 0.02 0.03 0.03 0.03 0.04 0.05 0.06 0.06 0.06 0.07 0.09 0.07 0.04 0.02 0.01 0.01 0.02 0.02 0.02 0.02 0.02 0.02 0.02 0.02
0.00 0.00 0.00 0.00 0.00 0.01 0.01 0.01 0.00 0.00 0.00 0.00 0.00 0.00 0.01 0.01 0.01 0.01 0.01 0.01 0.01 0.01 0.01 0.01 0.01 0.01 0.02 0.02 0.03 0.04 0.06 0.05 0.06 0.07 0.08 0.11 0.11 0.07 0.04 0.02 0.02 0.02 0.02 0.02 0.02 0.02 0.02 0.02 0.02
0.01 0.00 0.00 0.00 0.00 0.01 0.01 0.01 0.01 0.00 0.00 0.00 0.01 0.01 0.02 0.02 0.01 0.01 0.01 0.01 0.01 0.01 0.02 0.02 0.02 0.01 0.02 0.03 0.03 0.03 0.04 0.03 0.03 0.04 0.07 0.10 0.13 0.11 0.06 0.03 0.02 0.02 0.02 0.02 0.01 0.01 0.01 0.02 0.03
0.01 0.01 0.00 0.00 0.00 0.01 0.01 0.01 0.01 0.00 0.00 0.00 0.00 0.01 0.01 0.01 0.02 0.01 0.01 0.01 0.01 0.02 0.02 0.03 0.03 0.02 0.02 0.03 0.03 0.03 0.03 0.03 0.04 0.04 0.06 0.08 0.12 0.15 0.12 0.06 0.04 0.02 0.02 0.01 0.02 0.02 0.02 0.02 0.04
0.01 0.01 0.01 0.01 0.02 0.02 0.00 0.01 0.01 0.00 0.00 0.00 0.00 0.00 0.00 0.00 0.01 0.01 0.01 0.01 0.01 0.01 0.02 0.02 0.02 0.02 0.02 0.03 0.03 0.02 0.02 0.02 0.03 0.03 0.04 0.06 0.09 0.13 0.15 0.11 0.06 0.03 0.02 0.01 0.01 0.02 0.03 0.03 0.04
0.01 0.03 0.05 0.04 0.04 0.02 0.01 0.01 0.01 0.01 0.00 0.00 0.00 0.00 0.00 0.00 0.00 0.02 0.02 0.01 0.01 0.01 0.01 0.01 0.01 0.01 0.01 0.01 0.02 0.02 0.02 0.02 0.02 0.02 0.02 0.03 0.05 0.08 0.11 0.12 0.08 0.06 0.04 0.01 0.01 0.01 0.02 0.03 0.04
0.01 0.02 0.03 0.03 0.02 0.02 0.02 0.01 0.01 0.01 0.00 0.00 0.00 0.00 0.00 0.00 0.00 0.01 0.01 0.02 0.02 0.02 0.02 0.01 0.01 0.01 0.01 0.01 0.01 0.02 0.02 0.02 0.03 0.03 0.03 0.02 0.02 0.05 0.07 0.09 0.08 0.06 0.05 0.03 0.02 0.01 0.01 0.02 0.03
0.02 0.02 0.02 0.03 0.02 0.02 0.03 0.01 0.01 0.00 0.00 0.00 0.00 0.00 0.00 0.00 0.00 0.00 0.01 0.02 0.03 0.03 0.02 0.02 0.02 0.02 0.02 0.01 0.01 0.02 0.02 0.02 0.02 0.03 0.04 0.04 0.04 0.04 0.05 0.07 0.09 0.07 0.05 0.04 0.03 0.02 0.01 0.01 0.01
0.03 0.03 0.03 0.04 0.04 0.02 0.02 0.01 0.01 0.00 0.00 0.00 0.00 0.01 0.01 0.02 0.01 0.00 0.01 0.02 0.04 0.03 0.03 0.03 0.02 0.02 0.02 0.02 0.02 0.02 0.02 0.02 0.01 0.01 0.02 0.04 0.05 0.06 0.06 0.07 0.08 0.09 0.08 0.05 0.04 0.03 0.02 0.02 0.02
0.03 0.04 0.04 0.04 0.03 0.02 0.02 0.02 0.01 0.00 0.00 0.01 0.01 0.01 0.03 0.02 0.01 0.01 0.02 0.03 0.03 0.03 0.03 0.03 0.02 0.02 0.02 0.02 0.02 0.02 0.02 0.02 0.02 0.02 0.01 0.02 0.03 0.05 0.07 0.08 0.08 0.09 0.10 0.09 0.07 0.05 0.04 0.04 0.04
0.02 0.04 0.04 0.04 0.03 0.02 0.02 0.02 0.00 0.00 0.00 0.01 0.01 0.02 0.02 0.01 0.01 0.01 0.02 0.03 0.03 0.03 0.02 0.02 0.02 0.02 0.02 0.02 0.02 0.02 0.02 0.03 0.03 0.03 0.02 0.02 0.03 0.04 0.06 0.08 0.09 0.10 0.11 0.12 0.11 0.09 0.06 0.05 0.04
MSLP
1013.23 1013.91 1014.91 1016.11 1017.38 1018.58 1019.58 1020.32 1020.78 1021.02 1021.15 1021.28 1021.51 1021.88 1022.40 1023.00 1023.58 1024.01 1024.20 1024.11 1023.73 1023.12 1022.37 1021.59 1020.86 1020.24 1019.74 1019.35 1019.02 1018.71 1018.38 1018.03 1017.66 1017.33 1017.06 1016.89 1016.81 1016.82 1016.88 1016.96 1017.01 1017.01 1016.96 1016.88 1016.79 1016.72 1016.67 1016.68 1016.71
1013.71 1014.60 1015.76 1017.06 1018.35 1019.50 1020.40 1021.00 1021.33 1021.46 1021.51 1021.61 1021.84 1022.25 1022.81 1023.44 1024.03 1024.46 1024.66 1024.56 1024.19 1023.60 1022.89 1022.15 1021.46 1020.88 1020.40 1020.02 1019.69 1019.36 1019.02 1018.65 1018.27 1017.92 1017.62 1017.40 1017.27 1017.20 1017.16 1017.14 1017.10 1017.02 1016.92 1016.81 1016.71 1016.64 1016.62 1016.65 1016.70
1014.26 1015.32 1016.61 1017.96 1019.23 1020.30 1021.07 1021.54 1021.75 1021.80 1021.81 1021.92 1022.18 1022.62 1023.21 1023.86 1024.46 1024.88 1025.05 1024.95 1024.58 1024.02 1023.35 1022.66 1022.03 1021.50 1021.06 1020.69 1020.36 1020.02 1019.66 1019.28 1018.89 1018.51 1018.18 1017.91 1017.71 1017.55 1017.42 1017.29 1017.15 1016.99 1016.84 1016.70 1016.59 1016.54 1016.55 1016.60 1016.68
1014.87 1016.07 1017.43 1018.79 1020.00 1020.96 1021.61 1021.96 1022.08 1022.09 1022.11 1022.25 1022.56 1023.05 1023.66 1024.31 1024.88 1025.26 1025.40 1025.28 1024.92 1024.40 1023.79 1023.17 1022.61 1022.14 1021.73 1021.38 1021.05 1020.69 1020.31 1019.90 1019.49 1019.09 1018.72 1018.40 1018.13 1017.89 1017.66 1017.44 1017.21 1016.98 1016.78 1016.61 1016.51 1016.47 1016.49 1016.56 1016.66
1015.53 1016.84 1018.22 1019.54 1020.66 1021.50 1022.03 1022.29 1022.37 1022.38 1022.44 1022.64 1023.01 1023.55 1024.17 1024.80 1025.31 1025.64 1025.73 1025.58 1025.23 1024.76 1024.22 1023.70 1023.23 1022.82 1022.46 1022.12 1021.77 1021.38 1020.96 1020.52 1020.07 1019.64 1019.24 1018.88 1018.55 1018.25 1017.94 1017.64 1017.33 1017.05 1016.79 1016.60 1016.49 1016.45 1016.47 1016.55 1016.65
1016.26 1017.61 1018.97 1020.21 1021.21 1021.93 1022.36 1022.56 1022.63 1022.68 1022.82 1023.11 1023.56 1024.13 1024.76 1025.33 1025.78 1026.02 1026.05 1025.87 1025.54 1025.12 1024.68 1024.26 1023.89 1023.55 1023.23 1022.89 1022.52 1022.09 1021.62 1021.13 1020.64 1020.18 1019.75 1019.37 1019.00 1018.65 1018.29 1017.92 1017.56 1017.22 1016.92 1016.70 1016.55 1016.49 1016.50 1016.56 1016.64
1017.02 1018.37 1019.67 1020.79 1021.66 1022.25 1022.59 1022.76 1022.86 1023.00 1023.24 1023.64 1024.17 1024.78 1025.39 1025.91 1026.26 1026.42 1026.37 1026.17 1025.86 1025.51 1025.16 1024.85 1024.58 1024.31 1024.02 1023.69 1023.28 1022.81 1022.28 1021.74 1021.21 1020.73 1020.28 1019.88 1019.50 1019.11 1018.72 1018.31 1017.89 1017.50 1017.16 1016.89 1016.70 1016.60 1016.56 1016.57 1016.61
1017.82 1019.12 1020.31 1021.30 1022.02 1022.49 1022.75 1022.91 1023.06 1023.30 1023.67 1024.19 1024.80 1025.45 1026.03 1026.49 1026.75 1026.81 1026.70 1026.47 1026.19 1025.90 1025.65 1025.44 1025.25 1025.05 1024.79 1024.45 1024.01 1023.49 1022.92 1022.34 1021.79 1021.28 1020.83 1020.43 1020.04 1019.64 1019.22 1018.77 1018.31 1017.86 1017.46 1017.13 1016.89 1016.73 1016.63 1016.58 1016.55
1018.61 1019.84 1020.90 1021.73 1022.29 1022.64 1022.84 1023.01 1023.23 1023.57 1024.07 1024.71 1025.40 1026.08 1026.64 1027.03 1027.21 1027.20 1027.03 1026.77 1026.51 1026.28 1026.10 1025.98 1025.87 1025.72 1025.48 1025.13 1024.67 1024.12 1023.51 1022.91 1022.34 1021.83 1021.39 1020.99 1020.60 1020.19 1019.74 1019.26 1018.75 1018.25 1017.79 1017.40 1017.09 1016.85 1016.69 1016.56 1016.46
1019.40 1020.52 1021.43 1022.09 1022.50 1022.73 1022.88 1023.05 1023.34 1023.79 1024.41 1025.15 1025.91 1026.62 1027.17 1027.51 1027.62 1027.54 1027.32 1027.06 1026.81 1026.62 1026.51 1026.44 1026.39 1026.27 1026.05 1025.70 1025.22 1024.65 1024.03 1023.41 1022.85 1022.36 1021.92 1021.53 1021.14 1020.72 1020.25 1019.72 1019.17 1018.61 1018.09 1017.63 1017.25 1016.95 1016.72 1016.52 1016.35
1020.15 1021.16 1021.91 1022.40 1022.66 1022.79 1022.89 1023.07 1023.41 1023.95 1024.67 1025.48 1026.31 1027.03 1027.57 1027.87 1027.94 1027.82 1027.58 1027.31 1027.08 1026.92 1026.85 1026.82 1026.79 1026.69 1026.47 1026.12 1025.64 1025.06 1024.45 1023.85 1023.30 1022.82 1022.40 1022.01 1021.62 1021.17 1020.67 1020.10 1019.50 1018.89 1018.31 1017.80 1017.37 1017.02 1016.73 1016.48 1016.26
1020.86 1021.73 1022.34 1022.68 1022.82 1022.86 1022.92 1023.10 1023.48 1024.08 1024.85 1025.72 1026.57 1027.30 1027.83 1028.12 1028.16 1028.03 1027.79 1027.52 1027.31 1027.18 1027.13 1027.12 1027.09 1026.99 1026.77 1026.42 1025.94 1025.38 1024.78 1024.20 1023.68 1023.22 1022.80 1022.41 1021.99 1021.51 1020.97 1020.36 1019.71 1019.06 1018.45 1017.90 1017.44 1017.06 1016.74 1016.46 1016.19
1021.50 1022.26 1022.73 1022.95 1022.99 1022.97 1023.00 1023.19 1023.58 1024.20 1024.99 1025.87 1026.72 1027.44 1027.95 1028.23 1028.28 1028.16 1027.94 1027.70 1027.52 1027.41 1027.37 1027.36 1027.33 1027.22 1026.99 1026.64 1026.17 1025.63 1025.06 1024.51 1024.00 1023.54 1023.12 1022.70 1022.24 1021.73 1021.14 1020.48 1019.80 1019.12 1018.49 1017.93 1017.47 1017.08 1016.75 1016.45 1016.16
1022.09 1022.73 1023.10 1023.24 1023.23 1023.17 1023.19 1023.37 1023.77 1024.37 1025.14 1025.98 1026.78 1027.47 1027.96 1028.23 1028.30 1028.21 1028.04 1027.85 1027.70 1027.62 1027.59 1027.57 1027.53 1027.41 1027.18 1026.83 1026.38 1025.87 1025.33 1024.79 1024.29 1023.82 1023.37 1022.90 1022.39 1021.82 1021.18 1020.49 1019.78 1019.10 1018.47 1017.93 1017.47 1017.10 1016.77 1016.47 1016.17
1022.60 1023.15 1023.46 1023.56 1023.54 1023.50 1023.53 1023.71 1024.07 1024.63 1025.33 1026.08 1026.81 1027.43 1027.88 1028.15 1028.25 1028.21 1028.10 1027.97 1027.88 1027.82 1027.80 1027.79 1027.74 1027.61 1027.39 1027.06 1026.63 1026.14 1025.62 1025.10 1024.59 1024.09 1023.58 1023.05 1022.47 1021.84 1021.15 1020.43 1019.71 1019.03 1018.43 1017.91 1017.48 1017.12 1016.81 1016.51 1016.18
1023.04 1023.53 1023.82 1023.94 1023.96 1023.96 1024.02 1024.20 1024.53 1025.01 1025.59 1026.23 1026.83 1027.36 1027.76 1028.01 1028.13 1028.15 1028.11 1028.06 1028.02 1028.01 1028.01 1028.01 1027.96 1027.84 1027.63 1027.32 1026.93 1026.47 1025.97 1025.45 1024.91 1024.36 1023.79 1023.18 1022.52 1021.82 1021.09 1020.35 1019.63 1018.97 1018.39 1017.90 1017.50 1017.16 1016.85 1016.54 1016.19
1023.43 1023.90 1024.21 1024.39 1024.49 1024.57 1024.68 1024.86 1025.13 1025.51 1025.95 1026.42 1026.88 1027.29 1027.61 1027.84 1027.98 1028.05 1028.09 1028.11 1028.13 1028.16 1028.19 1028.19 1028.16 1028.06 1027.87 1027.60 1027.25 1026.83 1026.35 1025.83 1025.26 1024.65 1024.01 1023.32 1022.59 1021.82 1021.05 1020.29 1019.58 1018.94 1018.39 1017.92 1017.54 1017.20 1016.89 1016.55 1016.18
1023.81 1024.29 1024.66 1024.95 1025.16 1025.33 1025.49 1025.66 1025.87 1026.11 1026.38 1026.67 1026.96 1027.23 1027.46 1027.65 1027.80 1027.92 1028.01 1028.09 1028.17 1028.23 1028.28 1028.31 1028.29 1028.21 1028.07 1027.85 1027.55 1027.18 1026.73 1026.20 1025.61 1024.96 1024.24 1023.48 1022.68 1021.86 1021.06 1020.29 1019.59 1018.97 1018.44 1017.99 1017.61 1017.26 1016.92 1016.55 1016.13
1024.21 1024.75 1025.22 1025.63 1025.97 1026.24 1026.44 1026.59 1026.70 1026.79 1026.87 1026.96 1027.06 1027.18 1027.31 1027.46 1027.61 1027.75 1027.89 1028.01 1028.11 1028.20 1028.26 1028.29 1028.28 1028.24 1028.14 1027.98 1027.75 1027.44 1027.03 1026.53 1025.92 1025.24 1024.47 1023.65 1022.80 1021.95 1021.13 1020.36 1019.67 1019.07 1018.55 1018.10 1017.70 1017.32 1016.94 1016.53 1016.07
1024.72 1025.34 1025.94 1026.49 1026.95 1027.29 1027.51 1027.60 1027.59 1027.49 1027.37 1027.24 1027.16 1027.13 1027.17 1027.26 1027.40 1027.56 1027.72 1027.85 1027.96 1028.04 1028.08 1028.10 1028.10 1028.08 1028.03 1027.94 1027.78 1027.54 1027.20 1026.73 1026.15 1025.45 1024.67 1023.82 1022.95 1022.08 1021.26 1020.50 1019.83 1019.23 1018.71 1018.25 1017.82 1017.40 1016.97 1016.51 1016.01
1025.39 1026.13 1026.86 1027.53 1028.09 1028.47 1028.66 1028.65 1028.47 1028.17 1027.82 1027.49 1027.22 1027.05 1027.00 1027.06 1027.18 1027.35 1027.51 1027.64 1027.72 1027.76 1027.77 1027.75 1027.74 1027.72 1027.71 1027.68 1027.60 1027.45 1027.18 1026.78 1026.24 1025.57 1024.80 1023.96 1023.09 1022.24 1021.43 1020.70 1020.03 1019.45 1018.92 1018.43 1017.96 1017.49 1017.02 1016.51 1015.98
1026.27 1027.15 1028.01 1028.78 1029.38 1029.75 1029.85 1029.68 1029.30 1028.77 1028.19 1027.65 1027.22 1026.94 1026.82 1026.84 1026.97 1027.13 1027.29 1027.39 1027.43 1027.41 1027.35 1027.27 1027.22 1027.20 1027.21 1027.23 1027.23 1027.16 1026.98 1026.66 1026.19 1025.58 1024.85 1024.04 1023.21 1022.39 1021.62 1020.91 1020.27 1019.69 1019.14 1018.63 1018.12 1017.61 1017.08 1016.55 1016.00
1027.38 1028.39 1029.37 1030.20 1030.79 1031.08 1031.02 1030.66 1030.03 1029.26 1028.44 1027.70 1027.13 1026.76 1026.60 1026.62 1026.76 1026.94 1027.08 1027.16 1027.14 1027.04 1026.89 1026.74 1026.62 1026.57 1026.59 1026.65 1026.71 1026.72 1026.64 1026.40 1026.01 1025.47 1024.81 1024.06 1023.28 1022.52 1021.79 1021.12 1020.50 1019.93 1019.38 1018.83 1018.29 1017.73 1017.18 1016.62 1016.08
1028.66 1029.81 1030.87 1031.71 1032.24 1032.38 1032.13 1031.51 1030.62 1029.58 1028.54 1027.63 1026.94 1026.52 1026.35 1026.39 1026.56 1026.77 1026.92 1026.96 1026.89 1026.71 1026.47 1026.23 1026.04 1025.95 1025.95 1026.03 1026.14 1026.21 1026.20 1026.05 1025.74 1025.28 1024.69 1024.01 1023.30 1022.59 1021.92 1021.29 1020.70 1020.14 1019.59 1019.03 1018.45 1017.87 1017.29 1016.73 1016.19
1030.04 1031.30 1032.40 1033.21 1033.62 1033.58 1033.08 1032.19 1031.03 1029.74 1028.49 1027.44 1026.67 1026.22 1026.07 1026.16 1026.39 1026.63 1026.80 1026.83 1026.71 1026.46 1026.14 1025.81 1025.55 1025.41 1025.38 1025.46 1025.59 1025.70 1025.75 1025.66 1025.42 1025.02 1024.50 1023.89 1023.25 1022.60 1021.98 1021.40 1020.85 1020.31 1019.76 1019.19 1018.60 1018.00 1017.41 1016.85 1016.33
1031.36 1032.71 1033.82 1034.56 1034.82 1034.57 1033.82 1032.66 1031.23 1029.72 1028.31 1027.14 1026.32 1025.88 1025.78 1025.94 1026.24 1026.54 1026.74 1026.77 1026.62 1026.32 1025.93 1025.53 1025.20 1025.00 1024.94 1024.99 1025.12 1025.25 1025.32 1025.27 1025.07 1024.72 1024.26 1023.71 1023.12 1022.53 1021.96 1021.43 1020.91 1020.40 1019.87 1019.30 1018.72 1018.11 1017.52 1016.97 1016.48
1032.50 1033.89 1034.98 1035.61 1035.71 1035.24 1034.26 1032.86 1031.22 1029.53 1028.00 1026.78 1025.95 1025.54 1025.51 1025.74 1026.11 1026.47 1026.70 1026.75 1026.59 1026.26 1025.82 1025.38 1025.00 1024.74 1024.64 1024.66 1024.76 1024.88 1024.94 1024.89 1024.71 1024.39 1023.95 1023.44 1022.90 1022.36 1021.85 1021.36 1020.89 1020.41 1019.90 1019.36 1018.79 1018.20 1017.62 1017.09 1016.62
1033.33 1034.71 1035.73 1036.25 1036.19 1035.53 1034.35 1032.78 1030.99 1029.21 1027.62 1026.39 1025.59 1025.23 1025.27 1025.57 1026.00 1026.40 1026.67 1026.74 1026.58 1026.23 1025.78 1025.30 1024.88 1024.59 1024.45 1024.42 1024.48 1024.56 1024.60 1024.53 1024.33 1024.01 1023.59 1023.10 1022.60 1022.10 1021.63 1021.19 1020.76 1020.33 1019.86 1019.35 1018.81 1018.24 1017.69 1017.18 1016.75
1033.73 1035.06 1035.98 1036.38 1036.17 1035.38 1034.07 1032.41 1030.57 1028.77 1027.21 1026.02 1025.28 1024.99 1025.08 1025.44 1025.90 1026.33 1026.61 1026.68 1026.52 1026.17 1025.71 1025.23 1024.80 1024.48 1024.30 1024.24 1024.25 1024.28 1024.26 1024.15 1023.92 1023.59 1023.16 1022.69 1022.21 1021.75 1021.32 1020.92 1020.55 1020.16 1019.74 1019.27 1018.77 1018.24 1017.73 1017.25 1016.85
1033.69 1034.92 1035.71 1035.98 1035.66 1034.79 1033.44 1031.78 1029.98 1028.27 1026.80 1025.71 1025.06 1024.84 1024.98 1025.35 1025.81 1026.22 1026.48 1026.54 1026.37 1026.03 1025.57 1025.09 1024.66 1024.34 1024.13 1024.03 1023.99 1023.96 1023.89 1023.73 1023.47 1023.11 1022.68 1022.21 1021.75 1021.32 1020.93 1020.58 1020.25 1019.91 1019.54 1019.13 1018.68 1018.20 1017.73 1017.29 1016.92
Thickness
5708 5712 5713 5706 5690 5673 5674 5687 5700 5706 5708 5712 5714 5712 5707 5702 5700 5696 5705 5711 5711 5710 5710 5710 5710 5710 5710 5711 5711 5711 5712 5712 5713 5713 5713 5713 5714 5713 5713 5714 5713 5713 5713 5713 5713 5713 5713 5712 5712
5704 5706 5702 5690 5672 5660 5671 5688 5696 5704 5709 5710 5709 5706 5701 5699 5702 5701 5703 5706 5708 5707 5707 5707 5707 5707 5707 5708 5708 5708 5708 5709 5709 5709 5710 5710 5710 5710 5710 5710 5710 5710 5710 5710 5710 5709 5709 5709 5708
5700 5700 5687 5674 5664 5663 5676 5690 5696 5704 5709 5708 5699 5697 5695 5694 5697 5698 5700 5702 5703 5703 5703 5703 5703 5703 5704 5704 5704 5704 5705 5705 5705 5706 5706 5706 5706 5706 5706 5706 5706 5706 5706 5706 5706 5705 5705 5705 5705
5691 5683 5675 5663 5664 5674 5683 5690 5696 5700 5703 5701 5695 5687 5689 5694 5695 5696 5698 5699 5699 5698 5698 5699 5699 5699 5699 5700 5700 5700 5701 5701 5701 5702 5702 5702 5702 5702 5702 5702 5702 5702 5702 5702 5702 5702 5701 5701 5701
5680 5669 5658 5652 5663 5675 5682 5688 5693 5693 5692 5692 5689 5680 5681 5688 5693 5693 5693 5694 5694 5693 5694 5693 5694 5694 5694 5695 5695 5696 5696 5696 5697 5697 5698 5698 5698 5698 5698 5698 5698 5698 5698 5698 5698 5698 5697 5697 5697
5663 5657 5644 5645 5659 5671 5678 5683 5686 5684 5684 5685 5681 5674 5674 5682 5685 5685 5687 5688 5688 5688 5688 5688 5689 5689 5689 5689 5690 5691 5691 5691 5691 5692 5693 5693 5693 5693 5693 5693 5693 5693 5693 5693 5693 5693 5693 5693 5693
5653 5646 5642 5647 5653 5662 5672 5676 5675 5675 5676 5676 5677 5668 5668 5674 5678 5680 5681 5682 5682 5682 5682 5683 5683 5683 5683 5684 5684 5685 5685 5685 5685 5686 5686 5687 5687 5687 5687 5688 5688 5688 5688 5689 5689 5689 5689 5688 5688
5651 5642 5640 5641 5647 5656 5667 5670 5671 5669 5668 5672 5672 5664 5662 5668 5672 5674 5674 5674 5675 5675 5676 5677 5677 5678 5678 5678 5678 5678 5678 5679 5679 5679 5680 5681 5681 5681 5681 5682 5682 5682 5683 5683 5683 5683 5684 5684 5683
5647 5631 5630 5638 5644 5652 5661 5660 5661 5664 5663 5662 5663 5665 5666 5667 5667 5666 5665 5665 5667 5668 5669 5670 5671 5672 5672 5672 5671 5672 5672 5672 5672 5673 5673 5674 5674 5675 5675 5675 5676 5676 5677 5677 5677 5678 5678 5678 5678
5632 5621 5631 5641 5645 5648 5652 5653 5652 5653 5651 5650 5653 5656 5659 5659 5659 5658 5658 5658 5659 5660 5662 5664 5665 5666 5666 5666 5665 5665 5665 5665 5665 5666 5667 5667 5667 5668 5668 5668 5669 5670 5670 5670 5671 5671 5672 5672 5673
5626 5622 5631 5637 5641 5644 5644 5644 5646 5645 5642 5645 5646 5647 5649 5650 5650 5651 5651 5651 5652 5653 5655 5657 5658 5659 5660 5659 5659 5658 5658 5658 5659 5659 5659 5660 5661 5661 5661 5661 5662 5662 5663 5664 5664 5665 5665 5666 5666
5618 5621 5627 5630 5635 5636 5635 5636 5635 5637 5640 5644 5644 5644 5643 5642 5643 5644 5645 5645 5645 5647 5649 5650 5651 5652 5652 5652 5652 5652 5652 5652 5652 5652 5652 5653 5653 5653 5653 5654 5654 5655 5655 5656 5657 5657 5658 5659 5660
5611 5614 5618 5621 5624 5625 5627 5626 5627 5628 5633 5636 5636 5636 5635 5635 5636 5637 5638 5639 5639 5640 5642 5643 5644 5645 5645 5645 5645 5644 5645 5645 5645 5645 5645 5646 5646 5646 5646 5646 5647 5648 5648 5649 5649 5650 5651 5652 5652
5605 5606 5609 5612 5615 5617 5616 5617 5619 5621 5624 5626 5626 5626 5628 5629 5629 5629 5630 5631 5633 5634 5635 5636 5637 5638 5638 5638 5638 5637 5637 5637 5638 5638 5638 5638 5638 5638 5638 5638 5639 5640 5641 5641 5642 5643 5643 5644 5644
5598 5595 5597 5602 5606 5608 5609 5606 5611 5616 5615 5616 5617 5618 5620 5621 5621 5622 5624 5625 5626 5627 5628 5629 5629 5630 5630 5630 5630 5630 5630 5630 5630 5630 5630 5630 5630 5630 5630 5630 5631 5632 5633 5634 5634 5635 5635 5636 5636
5587 5582 5581 5593 5597 5599 5596 5596 5607 5607 5607 5606 5607 5609 5611 5612 5613 5615 5617 5617 5618 5619 5620 5621 5622 5622 5622 5622 5622 5621 5622 5622 5622 5621 5622 5622 5622 5622 5622 5622 5623 5623 5624 5625 5625 5626 5626 5626 5627
5570 5567 5574 5583 5588 5589 5588 5589 5598 5599 5600 5599 5599 5600 5602 5603 5605 5607 5609 5610 5611 5611 5612 5612 5613 5613 5613 5613 5613 5613 5613 5613 5613 5613 5613 5613 5613 5613 5613 5614 5614 5614 5615 5615 5616 5616 5617 5617 5618
5559 5561 5568 5572 5579 5579 5577 5581 5587 5589 5591 5590 5591 5591 5593 5596 5598 5600 5601 5602 5602 5602 5603 5603 5603 5604 5604 5604 5604 5603 5603 5603 5603 5604 5604 5604 5605 5605 5605 5605 5605 5605 5606 5606 5606 5606 5606 5607 5608
5560 5558 5559 5565 5571 5570 5569 5572 5576 5579 5580 5580 5581 5583 5585 5589 5590 5591 5592 5592 5592 5592 5593 5593 5594 5594 5594 5594 5594 5593 5593 5593 5594 5594 5595 5595 5596 5596 5596 5596 5595 5595 5595 5596 5596 5596 5596 5596 5596
5552 5549 5549 5554 5560 5559 5557 5562 5569 5572 5575 5577 5577 5577 5579 5580 5580 5581 5582 5582 5582 5582 5582 5583 5584 5584 5585 5585 5585 5585 5584 5583 5584 5584 5585 5585 5586 5586 5586 5586 5586 5586 5585 5585 5586 5586 5585 5584 5584
5540 5539 5541 5543 5547 5546 5546 5551 5560 5567 5569 5570 5571 5572 5572 5574 5574 5574 5573 5572 5572 5572 5572 5573 5573 5574 5574 5575 5575 5574 5573 5572 5572 5573 5574 5575 5575 5576 5576 5576 5575 5575 5575 5575 5575 5575 5574 5573 5573
5528 5536 5537 5535 5529 5524 5532 5528 5549 5555 5559 5562 5561 5561 5562 5566 5567 5566 5565 5563 5563 5563 5562 5563 5563 5563 5563 5564 5564 5563 5562 5561 5562 5562 5563 5564 5564 5565 5565 5565 5565 5565 5564 5564 5564 5564 5563 5562 5562
5522 5528 5526 5523 5516 5510 5515 5514 5535 5542 5549 5554 5554 5555 5555 5557 5557 5557 5557 5556 5554 5553 5552 5552 5552 5551 5552 5552 5552 5552 5551 5551 5550 5550 5551 5552 5553 5553 5554 5554 5554 5553 5553 5553 5553 5553 5552 5552 5551
5516 5512 5506 5498 5495 5500 5507 5506 5523 5530 5543 5549 5549 5548 5548 5548 5547 5547 5547 5545 5543 5541 5541 5541 5540 5539 5540 5540 5540 5540 5539 5539 5539 5539 5538 5539 5541 5541 5542 5542 5542 5542 5541 5542 5542 5541 5541 5541 5540
5504 5494 5484 5485 5483 5495 5504 5503 5518 5533 5537 5540 5541 5539 5538 5538 5537 5536 5535 5533 5532 5531 5530 5529 5528 5527 5528 5528 5528 5528 5527 5527 5527 5528 5528 5528 5529 5529 5530 5530 5529 5529 5529 5529 5530 5529 5529 5529 5529
5492 5492 5484 5482 5480 5486 5493 5496 5514 5524 5526 5530 5531 5529 5528 5526 5525 5525 5524 5523 5522 5521 5519 5518 5517 5516 5516 5517 5517 5516 5516 5516 5516 5516 5516 5516 5517 5518 5519 5519 5518 5518 5517 5517 5517 5518 5518 5518 5517
5484 5480 5483 5471 5465 5474 5483 5492 5507 5514 5516 5517 5517 5517 5514 5514 5514 5513 5512 5512 5510 5509 5508 5507 5506 5505 5505 5505 5505 5505 5505 5504 5504 5504 5505 5505 5506 5507 5507 5507 5507 5507 5506 5506 5505 5505 5505 5506 5506
5480 5476 5467 5466 5469 5475 5481 5485 5495 5502 5504 5505 5505 5504 5503 5502 5500 5500 5500 5499 5499 5498 5497 5496 5495 5494 5494 5494 5493 5493 5493 5493 5493 5493 5493 5494 5494 5494 5495 5495 5495 5495 5495 5494 5493 5493 5492 5493 5493
5467 5467 5465 5458 5460 5466 5469 5485 5495 5496 5497 5496 5495 5493 5491 5489 5488 5487 5487 5487 5487 5486 5485 5484 5484 5483 5483 5482 5481 5481 5481 5482 5482 5482 5482 5482 5482 5482 5483 5483 5483 5482 5482 5482 5481 5480 5480 5480 5480
5461 5461 5457 5459 5453 5449 5453 5474 5489 5485 5486 5487 5484 5483 5480 5478 5476 5476 5475 5475 5474 5473 5473 5472 5472 5472 5471 5470 5470 5470 5470 5470 5470 5470 5470 5470 5470 5470 5471 5471 5471 5470 5470 5469 5469 5468 5468 5467 5466